Location: Splawn
(30.9202°N, 96.9858°W)
Time: 02:13:08
(UTC+00:00)

Transit 2A Rocket - Pass Details

Date: 29 February 2020
Orbit: 588 x 915 km, 66.7° (Epoch: 06 April)

Event Time Altitude Azimuth Distance (km) Brightness Sun altitude
Rises 11:45:43 0° 345° (NNW) 3,219 8.1 -15.6°
Reaches altitude 10° 11:48:13 10° 354° (N) 2,344 7.5 -15.1°
Maximum altitude 11:53:11 36° 61° (ENE) 1,300 6.8 -14.0°
Drops below altitude 10° 11:58:30 10° 126° (SE) 2,514 8.5 -12.9°
Sets 12:01:15 0° 135° (SE) 3,484 9.2 -12.3°
